Location: Unspecified
(56.5167°N, 0.0000°E)
Time: 04:59:54
(UTC+01:00)

Resurs 1-4 Rocket - Pass Details

Date: 28 January 2018
Orbit: 801 x 813 km, 98.5° (Epoch: 23 February)

Event Time Altitude Azimuth Distance (km) Brightness Sun altitude
Rises 05:56:54 0° 12° (NNE) 3,340 5.5 -25.5°
Reaches altitude 10° 06:00:22 10° 349° (NNW) 2,407 4.5 -25.1°
Enters shadow 06:00:51 11° 344° (NNW) 2,319 4.4 -25.0°
